カタログに戻る

INTERCOSMOS 22

運用中科学PO
NORAD 12645·PAYLOAD·🇷🇺 Russia

打ち上げ Aug 7, 1981 から Plesetsk Cosmodrome

Loading…

次のパス (今後24時間)

TLE

最新Source: Space-Track

元期: Sep 13, 2026, 22:34 UTC

1 12645U 81075A   26256.94078352  .00000147  00000-0  63369-4 0  9991
2 12645  81.2158 119.2251 0062279 315.1927  44.4228 14.18990503332631

AllMySatでINTERCOSMOS 22をリアルタイム追跡

Download on the App Store